一网星座-0187星 (ONEWEB-0187 )

导读 | 豆包AI

ONEWEB-0187是英国一网(OneWeb)低轨宽带星座的组网卫星,于2021年4月25日发射入轨,属于该星座第6批发射的36颗卫星之一。卫星单颗重约147.5千克,配备氙等离子体推力器,搭载Ku、Ka波段通信天线,运行于1200公里近极地低地球轨道,设计寿命超7年。作为全球低轨互联网星座的组成部分,它旨在为全球提供低时延高速宽带接入,服务航空、海事、偏远地区联网等场景。

基本信息
目录编号:
48221
目录名称:
ONEWEB-0187
国际标识:
2021-031M
轨道中心:
EARTH
卫星名称:
一网星座-0187星
卫星全名:
一网星座-0187星 (ONEWEB-0187 )
卫星状态:
在轨 (已飞行1784 天)
发射日期:
2021-04-25 UTC
国别 :
英国 (GB)
星等 :
--
轨道信息
数据来源 国际轨道数据 AOE轨道数据
星历时间 2026-03-14T07:23:19+0800
10小时前
查看轨道信息
2026-03-12T11:00:00+0800
2天前
查看轨道信息
半长轴 7583.928km 7583.917km
偏心率 0.0001849 0.0001967
轨道倾角 87.897° 87.897°
近地点辐角 75.220° 84.998°
升交点赤经 308.725° 309.094°
平近点角 284.914° 167.777°
近地点 1204.388km 1204.288km
远地点 1207.194km 1207.272km
周期 109.547分钟 109.547分钟
每日圈数 13.145027 13.145056
详细信息
平衡模式:
三轴稳定
覆盖范围:
全球
运营商:
一网卫星公司
运营商所在国:
英国
制造商(研发单位):
一网卫星公司
制造商所在国:
英国
使用方式:
暂无
卫星简介
OneWeb卫星网络由648颗重约125公斤的微型卫星组成,运行在1200公里的轨道上。 每颗卫星都能够提供至少每秒8千兆位的吞吐量,以使用其高吞吐量的Ku频段有效载荷为家庭和移动平台提供互联网接入。该卫星仍在工作。
2D轨道图
3D轨道图
轨道高度分析图
轨道倾角分析图
轨道综合分析图
查看轨道综合分析图